Location: Oberkirch
(48.5323°N, 8.0787°E)
Time: 21:41:36
(UTC+00:00)

Tiros 1 - Pass Details

Date: 17 February 2026
Orbit: 618 x 649 km, 48.4° (Epoch: 9 March)

Event Time Altitude Azimuth Distance (km) Brightness Sun altitude
Rises 13:05:16 0° 283° (WNW) 2,895 10.6 26.8°
Reaches altitude 10° 13:07:37 10° 279° (W) 1,984 9.9 26.7°
Maximum altitude 13:12:02 52° 204° (SSW) 772 9.0 26.4°
Drops below altitude 10° 13:16:26 10° 128° (SE) 1,976 9.9 26.1°
Sets 13:18:47 0° 123° (ESE) 2,881 10.6 25.9°
